Year,Month,Day,Hour,Minute,Value (Times are PST for temperature in C)
2012,08,12,00,00,15.80
2012,08,12,00,01,15.80
2012,08,12,00,02,15.80
2012,08,12,00,03,15.80
2012,08,12,00,04,15.70
2012,08,12,00,05,15.70
2012,08,12,00,06,15.70
2012,08,12,00,07,15.70
2012,08,12,00,08,15.70
2012,08,12,00,09,15.70
2012,08,12,00,10,15.60
2012,08,12,00,11,15.60
2012,08,12,00,12,15.60
2012,08,12,00,13,15.60
2012,08,12,00,14,15.60
2012,08,12,00,15,15.50
2012,08,12,00,16,15.50
2012,08,12,00,17,15.50
2012,08,12,00,18,15.50
2012,08,12,00,19,15.40
2012,08,12,00,20,15.40
2012,08,12,00,21,15.40
2012,08,12,00,22,15.40
2012,08,12,00,23,15.40
2012,08,12,00,24,15.40
2012,08,12,00,25,15.40
2012,08,12,00,26,15.30
2012,08,12,00,27,15.30
2012,08,12,00,28,15.30
2012,08,12,00,29,15.30
2012,08,12,00,30,15.30
2012,08,12,00,31,15.30
2012,08,12,00,32,15.20
2012,08,12,00,33,15.20
2012,08,12,00,34,15.20
2012,08,12,00,35,15.20
2012,08,12,00,36,15.20
2012,08,12,00,37,15.20
2012,08,12,00,38,15.20
2012,08,12,00,39,15.20
2012,08,12,00,40,15.10
2012,08,12,00,41,15.10
2012,08,12,00,42,15.10
2012,08,12,00,43,15.10
2012,08,12,00,44,15.10
2012,08,12,00,45,15.10
2012,08,12,00,46,15.10
2012,08,12,00,47,15.00
2012,08,12,00,48,15.00
2012,08,12,00,49,15.00
2012,08,12,00,50,15.00
2012,08,12,00,51,15.00
2012,08,12,00,52,14.90
2012,08,12,00,53,14.90
2012,08,12,00,54,14.90
2012,08,12,00,55,14.90
2012,08,12,00,56,14.90
2012,08,12,00,57,14.90
2012,08,12,00,58,14.80
2012,08,12,00,59,14.80
2012,08,12,01,00,14.80
2012,08,12,01,01,14.80
2012,08,12,01,02,14.80
2012,08,12,01,03,14.80
2012,08,12,01,04,14.70
2012,08,12,01,05,14.70
2012,08,12,01,06,14.70
2012,08,12,01,07,14.70
2012,08,12,01,08,14.70
2012,08,12,01,09,14.70
2012,08,12,01,10,14.60
2012,08,12,01,11,14.60
2012,08,12,01,12,14.60
2012,08,12,01,13,14.60
2012,08,12,01,14,14.50
2012,08,12,01,15,14.50
2012,08,12,01,16,14.50
2012,08,12,01,17,14.50
2012,08,12,01,18,14.40
2012,08,12,01,19,14.40
2012,08,12,01,20,14.40
2012,08,12,01,21,14.40
2012,08,12,01,22,14.40
2012,08,12,01,23,14.40
2012,08,12,01,24,14.40
2012,08,12,01,25,14.30
2012,08,12,01,26,14.30
2012,08,12,01,27,14.30
2012,08,12,01,28,14.30
2012,08,12,01,29,14.30
2012,08,12,01,30,14.20
2012,08,12,01,31,14.20
2012,08,12,01,32,14.20
2012,08,12,01,33,14.20
2012,08,12,01,34,14.20
2012,08,12,01,35,14.20
2012,08,12,01,36,14.10
2012,08,12,01,37,14.10
2012,08,12,01,38,14.10
2012,08,12,01,39,14.10
2012,08,12,01,40,14.10
2012,08,12,01,41,14.10
2012,08,12,01,42,14.10
2012,08,12,01,43,14.10
2012,08,12,01,44,14.00
2012,08,12,01,45,14.00
2012,08,12,01,46,14.00
2012,08,12,01,47,14.00
2012,08,12,01,48,14.00
2012,08,12,01,49,13.90
2012,08,12,01,50,13.90
2012,08,12,01,51,13.90
2012,08,12,01,52,13.90
2012,08,12,01,53,13.90
2012,08,12,01,54,13.90
2012,08,12,01,55,13.90
2012,08,12,01,56,13.90
2012,08,12,01,57,13.80
2012,08,12,01,58,13.80
2012,08,12,01,59,13.80
2012,08,12,02,00,13.80
2012,08,12,02,01,13.80
2012,08,12,02,02,13.80
2012,08,12,02,03,13.80
2012,08,12,02,04,13.70
2012,08,12,02,05,13.70
2012,08,12,02,06,13.70
2012,08,12,02,07,13.70
2012,08,12,02,08,13.70
2012,08,12,02,09,13.70
2012,08,12,02,10,13.70
2012,08,12,02,11,13.70
2012,08,12,02,12,13.70
2012,08,12,02,13,13.70
2012,08,12,02,14,13.70
2012,08,12,02,15,13.70
2012,08,12,02,16,13.70
2012,08,12,02,17,13.70
2012,08,12,02,18,13.70
2012,08,12,02,19,13.70
2012,08,12,02,20,13.70
2012,08,12,02,21,13.60
2012,08,12,02,22,13.60
2012,08,12,02,23,13.60
2012,08,12,02,24,13.60
2012,08,12,02,25,13.60
2012,08,12,02,26,13.60
2012,08,12,02,27,13.60
2012,08,12,02,28,13.50
2012,08,12,02,29,13.50
2012,08,12,02,30,13.50
2012,08,12,02,31,13.50
2012,08,12,02,32,13.50
2012,08,12,02,33,13.40
2012,08,12,02,34,13.40
2012,08,12,02,35,13.40
2012,08,12,02,36,13.40
2012,08,12,02,37,13.40
2012,08,12,02,38,13.40
2012,08,12,02,39,13.40
2012,08,12,02,40,13.30
2012,08,12,02,41,13.30
2012,08,12,02,42,13.30
2012,08,12,02,43,13.30
2012,08,12,02,44,13.30
2012,08,12,02,45,13.30
2012,08,12,02,46,13.30
2012,08,12,02,47,13.30
2012,08,12,02,48,13.30
2012,08,12,02,49,13.30
2012,08,12,02,50,13.30
2012,08,12,02,51,13.20
2012,08,12,02,52,13.20
2012,08,12,02,53,13.20
2012,08,12,02,54,13.20
2012,08,12,02,55,13.20
2012,08,12,02,56,13.20
2012,08,12,02,57,13.20
2012,08,12,02,58,13.20
2012,08,12,02,59,13.20
2012,08,12,03,00,13.10
2012,08,12,03,01,13.10
2012,08,12,03,02,13.10
2012,08,12,03,03,13.10
2012,08,12,03,04,13.10
2012,08,12,03,05,13.10
2012,08,12,03,06,13.10
2012,08,12,03,07,13.10
2012,08,12,03,08,13.00
2012,08,12,03,09,13.00
2012,08,12,03,10,13.00
2012,08,12,03,11,13.00
2012,08,12,03,12,13.00
2012,08,12,03,13,13.00
2012,08,12,03,14,13.00
2012,08,12,03,15,13.00
2012,08,12,03,16,12.90
2012,08,12,03,17,12.90
2012,08,12,03,18,12.90
2012,08,12,03,19,12.90
2012,08,12,03,20,12.90
2012,08,12,03,21,12.90
2012,08,12,03,22,12.90
2012,08,12,03,23,12.90
2012,08,12,03,24,12.80
2012,08,12,03,25,12.80
2012,08,12,03,26,12.80
2012,08,12,03,27,12.80
2012,08,12,03,28,12.80
2012,08,12,03,29,12.80
2012,08,12,03,30,12.80
2012,08,12,03,31,12.80
2012,08,12,03,32,12.80
2012,08,12,03,33,12.80
2012,08,12,03,34,12.80
2012,08,12,03,35,12.80
2012,08,12,03,36,12.70
2012,08,12,03,37,12.70
2012,08,12,03,38,12.70
2012,08,12,03,39,12.80
2012,08,12,03,40,12.70
2012,08,12,03,41,12.70
2012,08,12,03,42,12.70
2012,08,12,03,43,12.70
2012,08,12,03,44,12.70
2012,08,12,03,45,12.70
2012,08,12,03,46,12.70
2012,08,12,03,47,12.70
2012,08,12,03,48,12.70
2012,08,12,03,49,12.70
2012,08,12,03,50,12.70
2012,08,12,03,51,12.70
2012,08,12,03,52,12.60
2012,08,12,03,53,12.60
2012,08,12,03,54,12.60
2012,08,12,03,55,12.60
2012,08,12,03,56,12.60
2012,08,12,03,57,12.60
2012,08,12,03,58,12.60
2012,08,12,03,59,12.50
2012,08,12,04,00,12.50
2012,08,12,04,01,12.50
2012,08,12,04,02,12.50
2012,08,12,04,03,12.50
2012,08,12,04,04,12.50
2012,08,12,04,05,12.50
2012,08,12,04,06,12.40
2012,08,12,04,07,12.40
2012,08,12,04,08,12.40
2012,08,12,04,09,12.40
2012,08,12,04,10,12.40
2012,08,12,04,11,12.40
2012,08,12,04,12,12.40
2012,08,12,04,13,12.40
2012,08,12,04,14,12.40
2012,08,12,04,15,12.40
2012,08,12,04,16,12.40
2012,08,12,04,17,12.40
2012,08,12,04,18,12.40
2012,08,12,04,19,12.40
2012,08,12,04,20,12.40
2012,08,12,04,21,12.30
2012,08,12,04,22,12.30
2012,08,12,04,23,12.30
2012,08,12,04,24,12.30
2012,08,12,04,25,12.30
2012,08,12,04,26,12.30
2012,08,12,04,27,12.30
2012,08,12,04,28,12.30
2012,08,12,04,29,12.30
2012,08,12,04,30,12.20
2012,08,12,04,31,12.20
2012,08,12,04,32,12.20
2012,08,12,04,33,12.20
2012,08,12,04,34,12.20
2012,08,12,04,35,12.20
2012,08,12,04,36,12.20
2012,08,12,04,37,12.20
2012,08,12,04,38,12.20
2012,08,12,04,39,12.10
2012,08,12,04,40,12.10
2012,08,12,04,41,12.10
2012,08,12,04,42,12.10
2012,08,12,04,43,12.10
2012,08,12,04,44,12.10
2012,08,12,04,45,12.10
2012,08,12,04,46,12.10
2012,08,12,04,47,12.10
2012,08,12,04,48,12.10
2012,08,12,04,49,12.00
2012,08,12,04,50,12.00
2012,08,12,04,51,12.00
2012,08,12,04,52,12.00
2012,08,12,04,53,12.00
2012,08,12,04,54,11.90
2012,08,12,04,55,11.90
2012,08,12,04,56,11.90
2012,08,12,04,57,11.90
2012,08,12,04,58,11.90
2012,08,12,04,59,11.90
2012,08,12,05,00,11.80
2012,08,12,05,01,11.80
2012,08,12,05,02,11.80
2012,08,12,05,03,11.80
2012,08,12,05,04,11.80
2012,08,12,05,05,11.80
2012,08,12,05,06,11.80
2012,08,12,05,07,11.80
2012,08,12,05,08,11.80
2012,08,12,05,09,11.80
2012,08,12,05,10,11.70
2012,08,12,05,11,11.70
2012,08,12,05,12,11.70
2012,08,12,05,13,11.70
2012,08,12,05,14,11.70
2012,08,12,05,15,11.70
2012,08,12,05,16,11.70
2012,08,12,05,17,11.70
2012,08,12,05,18,11.70
2012,08,12,05,19,11.70
2012,08,12,05,20,11.60
2012,08,12,05,21,11.60
2012,08,12,05,22,11.60
2012,08,12,05,23,11.60
2012,08,12,05,24,11.60
2012,08,12,05,25,11.60
2012,08,12,05,26,11.60
2012,08,12,05,27,11.60
2012,08,12,05,28,11.60
2012,08,12,05,29,11.60
2012,08,12,05,30,11.60
2012,08,12,05,31,11.60
2012,08,12,05,32,11.60
2012,08,12,05,33,11.50
2012,08,12,05,34,11.50
2012,08,12,05,35,11.50
2012,08,12,05,36,11.50
2012,08,12,05,37,11.50
2012,08,12,05,38,11.50
2012,08,12,05,39,11.50
2012,08,12,05,40,11.50
2012,08,12,05,41,11.50
2012,08,12,05,42,11.40
2012,08,12,05,43,11.40
2012,08,12,05,44,11.40
2012,08,12,05,45,11.40
2012,08,12,05,46,11.40
2012,08,12,05,47,11.40
2012,08,12,05,48,11.40
2012,08,12,05,49,11.40
2012,08,12,05,50,11.40
2012,08,12,05,51,11.40
2012,08,12,05,52,11.40
2012,08,12,05,53,11.40
2012,08,12,05,54,11.40
2012,08,12,05,55,11.40
2012,08,12,05,56,11.40
2012,08,12,05,57,11.30
2012,08,12,05,58,11.30
2012,08,12,05,59,11.30
2012,08,12,06,00,11.30
2012,08,12,06,01,11.30
2012,08,12,06,02,11.30
2012,08,12,06,03,11.30
2012,08,12,06,04,11.20
2012,08,12,06,05,11.20
2012,08,12,06,06,11.20
2012,08,12,06,07,11.20
2012,08,12,06,08,11.20
2012,08,12,06,09,11.20
2012,08,12,06,10,11.10
2012,08,12,06,11,11.10
2012,08,12,06,12,11.10
2012,08,12,06,13,11.10
2012,08,12,06,14,11.10
2012,08,12,06,15,11.10
2012,08,12,06,16,11.10
2012,08,12,06,17,11.10
2012,08,12,06,18,11.10
2012,08,12,06,19,11.10
2012,08,12,06,20,11.10
2012,08,12,06,21,11.00
2012,08,12,06,22,11.00
2012,08,12,06,23,11.00
2012,08,12,06,24,11.00
2012,08,12,06,25,11.00
2012,08,12,06,26,10.90
2012,08,12,06,27,10.90
2012,08,12,06,28,10.90
2012,08,12,06,29,10.90
2012,08,12,06,30,10.90
2012,08,12,06,31,10.90
2012,08,12,06,32,10.90
2012,08,12,06,33,10.80
2012,08,12,06,34,10.80
2012,08,12,06,35,10.80
2012,08,12,06,36,10.80
2012,08,12,06,37,10.80
2012,08,12,06,38,10.80
2012,08,12,06,39,10.80
2012,08,12,06,40,10.80
2012,08,12,06,41,10.80
2012,08,12,06,42,10.80
2012,08,12,06,43,10.80
2012,08,12,06,44,10.80
2012,08,12,06,45,10.80
2012,08,12,06,46,10.80
2012,08,12,06,47,10.80
2012,08,12,06,48,10.80
2012,08,12,06,49,10.80
2012,08,12,06,50,10.80
2012,08,12,06,51,10.80
2012,08,12,06,52,10.80
2012,08,12,06,53,10.80
2012,08,12,06,54,10.80
2012,08,12,06,55,10.80
2012,08,12,06,56,10.80
2012,08,12,06,57,10.80
2012,08,12,06,58,10.80
2012,08,12,06,59,10.80
2012,08,12,07,00,10.80
2012,08,12,07,01,10.80
2012,08,12,07,02,10.80
2012,08,12,07,03,10.80
2012,08,12,07,04,10.80
2012,08,12,07,05,10.80
2012,08,12,07,06,10.80
2012,08,12,07,07,10.90
2012,08,12,07,08,10.90
2012,08,12,07,09,10.90
2012,08,12,07,10,10.90
2012,08,12,07,11,10.90
2012,08,12,07,12,10.90
2012,08,12,07,13,10.90
2012,08,12,07,14,10.90
2012,08,12,07,15,10.90
2012,08,12,07,16,10.90
2012,08,12,07,17,10.90
2012,08,12,07,18,10.90
2012,08,12,07,19,10.90
2012,08,12,07,20,10.90
2012,08,12,07,21,10.90
2012,08,12,07,22,11.00
2012,08,12,07,23,11.00
2012,08,12,07,24,11.00
2012,08,12,07,25,11.00
2012,08,12,07,26,11.10
2012,08,12,07,27,11.10
2012,08,12,07,28,11.10
2012,08,12,07,29,11.10
2012,08,12,07,30,11.10
2012,08,12,07,31,11.20
2012,08,12,07,32,11.20
2012,08,12,07,33,11.20
2012,08,12,07,34,11.20
2012,08,12,07,35,11.30
2012,08,12,07,36,11.30
2012,08,12,07,37,11.30
2012,08,12,07,38,11.30
2012,08,12,07,39,11.40
2012,08,12,07,40,11.40
2012,08,12,07,41,11.50
2012,08,12,07,42,11.60
2012,08,12,07,43,11.60
2012,08,12,07,44,11.70
2012,08,12,07,45,11.70
2012,08,12,07,46,11.80
2012,08,12,07,47,11.80
2012,08,12,07,48,11.90
2012,08,12,07,49,12.00
2012,08,12,07,50,12.00
2012,08,12,07,51,12.10
2012,08,12,07,52,12.20
2012,08,12,07,53,12.30
2012,08,12,07,54,12.40
2012,08,12,07,55,12.50
2012,08,12,07,56,12.60
2012,08,12,07,57,12.70
2012,08,12,07,58,12.80
2012,08,12,07,59,12.80
2012,08,12,08,00,12.90
2012,08,12,08,01,12.90
2012,08,12,08,02,12.90
2012,08,12,08,03,13.00
2012,08,12,08,04,13.10
2012,08,12,08,05,13.10
2012,08,12,08,06,13.20
2012,08,12,08,07,13.20
2012,08,12,08,08,13.30
2012,08,12,08,09,13.30
2012,08,12,08,10,13.40
2012,08,12,08,11,13.40
2012,08,12,08,12,13.50
2012,08,12,08,13,13.60
2012,08,12,08,14,13.70
2012,08,12,08,15,13.80
2012,08,12,08,16,13.90
2012,08,12,08,17,14.00
2012,08,12,08,18,14.00
2012,08,12,08,19,14.10
2012,08,12,08,20,14.20
2012,08,12,08,21,14.30
2012,08,12,08,22,14.30
2012,08,12,08,23,14.40
2012,08,12,08,24,14.40
2012,08,12,08,25,14.40
2012,08,12,08,26,14.40
2012,08,12,08,27,14.40
2012,08,12,08,28,14.40
2012,08,12,08,29,14.40
2012,08,12,08,30,14.40
2012,08,12,08,31,14.40
2012,08,12,08,32,14.50
2012,08,12,08,33,14.50
2012,08,12,08,34,14.50
2012,08,12,08,35,14.60
2012,08,12,08,36,14.60
2012,08,12,08,37,14.70
2012,08,12,08,38,14.70
2012,08,12,08,39,14.80
2012,08,12,08,40,14.80
2012,08,12,08,41,14.90
2012,08,12,08,42,15.00
2012,08,12,08,43,15.10
2012,08,12,08,44,15.20
2012,08,12,08,45,15.30
2012,08,12,08,46,15.30
2012,08,12,08,47,15.40
2012,08,12,08,48,15.50
2012,08,12,08,49,15.60
2012,08,12,08,50,15.60
2012,08,12,08,51,15.70
2012,08,12,08,52,15.70
2012,08,12,08,53,15.80
2012,08,12,08,54,15.90
2012,08,12,08,55,15.90
2012,08,12,08,56,16.00
2012,08,12,08,57,16.10
2012,08,12,08,58,16.20
2012,08,12,08,59,16.20
2012,08,12,09,00,16.30
2012,08,12,09,01,16.30
2012,08,12,09,02,16.40
2012,08,12,09,03,16.50
2012,08,12,09,04,16.50
2012,08,12,09,05,16.50
2012,08,12,09,06,16.60
2012,08,12,09,07,16.60
2012,08,12,09,08,16.60
2012,08,12,09,09,16.70
2012,08,12,09,10,16.70
2012,08,12,09,11,16.80
2012,08,12,09,12,16.90
2012,08,12,09,13,17.00
2012,08,12,09,14,17.10
2012,08,12,09,15,17.20
2012,08,12,09,16,17.30
2012,08,12,09,17,17.30
2012,08,12,09,18,17.30
2012,08,12,09,19,17.30
2012,08,12,09,20,17.30
2012,08,12,09,21,17.30
2012,08,12,09,22,17.30
2012,08,12,09,23,17.30
2012,08,12,09,24,17.30
2012,08,12,09,25,17.30
2012,08,12,09,26,17.30
2012,08,12,09,27,17.40
2012,08,12,09,28,17.40
2012,08,12,09,29,17.50
2012,08,12,09,30,17.60
2012,08,12,09,31,17.70
2012,08,12,09,32,17.80
2012,08,12,09,33,17.90
2012,08,12,09,34,18.00
2012,08,12,09,35,18.00
2012,08,12,09,36,18.10
2012,08,12,09,37,18.20
2012,08,12,09,38,18.20
2012,08,12,09,39,18.20
2012,08,12,09,40,18.20
2012,08,12,09,41,18.10
2012,08,12,09,42,18.10
2012,08,12,09,43,18.10
2012,08,12,09,44,18.10
2012,08,12,09,45,18.10
2012,08,12,09,46,18.20
2012,08,12,09,47,18.20
2012,08,12,09,48,18.30
2012,08,12,09,49,18.40
2012,08,12,09,50,18.40
2012,08,12,09,51,18.50
2012,08,12,09,52,18.60
2012,08,12,09,53,18.60
2012,08,12,09,54,18.60
2012,08,12,09,55,18.50
2012,08,12,09,56,18.50
2012,08,12,09,57,18.50
2012,08,12,09,58,18.50
2012,08,12,09,59,18.50
2012,08,12,10,00,18.50
2012,08,12,10,01,18.50
2012,08,12,10,02,18.60
2012,08,12,10,03,18.60
2012,08,12,10,04,18.60
2012,08,12,10,05,18.70
2012,08,12,10,06,18.70
2012,08,12,10,07,18.80
2012,08,12,10,08,18.80
2012,08,12,10,09,18.80
2012,08,12,10,10,18.90
2012,08,12,10,11,18.90
2012,08,12,10,12,19.00
2012,08,12,10,13,19.00
2012,08,12,10,14,19.00
2012,08,12,10,15,19.10
2012,08,12,10,16,19.20
2012,08,12,10,17,19.20
2012,08,12,10,18,19.30
2012,08,12,10,19,19.30
2012,08,12,10,20,19.40
2012,08,12,10,21,19.50
2012,08,12,10,22,19.50
2012,08,12,10,23,19.60
2012,08,12,10,24,19.70
2012,08,12,10,25,19.70
2012,08,12,10,26,19.70
2012,08,12,10,27,19.70
2012,08,12,10,28,19.70
2012,08,12,10,29,19.70
2012,08,12,10,30,19.70
2012,08,12,10,31,19.70
2012,08,12,10,32,19.80
2012,08,12,10,33,19.80
2012,08,12,10,34,19.90
2012,08,12,10,35,20.00
2012,08,12,10,36,20.10
2012,08,12,10,37,20.20
2012,08,12,10,38,20.20
2012,08,12,10,39,20.30
2012,08,12,10,40,20.30
2012,08,12,10,41,20.40
2012,08,12,10,42,20.50
2012,08,12,10,43,20.50
2012,08,12,10,44,20.60
2012,08,12,10,45,20.60
2012,08,12,10,46,20.70
2012,08,12,10,47,20.70
2012,08,12,10,48,20.70
2012,08,12,10,49,20.70
2012,08,12,10,50,20.70
2012,08,12,10,51,20.70
2012,08,12,10,52,20.70
2012,08,12,10,53,20.70
2012,08,12,10,54,20.80
2012,08,12,10,55,20.80
2012,08,12,10,56,20.80
2012,08,12,10,57,20.90
2012,08,12,10,58,21.00
2012,08,12,10,59,21.00
2012,08,12,11,00,21.10
2012,08,12,11,01,21.10
2012,08,12,11,02,21.10
2012,08,12,11,03,21.10
2012,08,12,11,04,21.10
2012,08,12,11,05,21.10
2012,08,12,11,06,21.20
2012,08,12,11,07,21.30
2012,08,12,11,08,21.40
2012,08,12,11,09,21.50
2012,08,12,11,10,21.70
2012,08,12,11,11,21.80
2012,08,12,11,12,21.90
2012,08,12,11,13,22.00
2012,08,12,11,14,22.10
2012,08,12,11,15,22.20
2012,08,12,11,16,22.20
2012,08,12,11,17,22.30
2012,08,12,11,18,22.40
2012,08,12,11,19,22.40
2012,08,12,11,20,22.40
2012,08,12,11,21,22.40
2012,08,12,11,22,22.30
2012,08,12,11,23,22.30
2012,08,12,11,24,22.30
2012,08,12,11,25,22.30
2012,08,12,11,26,22.20
2012,08,12,11,27,22.20
2012,08,12,11,28,22.20
2012,08,12,11,29,22.20
2012,08,12,11,30,22.30
2012,08,12,11,31,22.40
2012,08,12,11,32,22.40
2012,08,12,11,33,22.40
2012,08,12,11,34,22.50
2012,08,12,11,35,22.50
2012,08,12,11,36,22.60
2012,08,12,11,37,22.60
2012,08,12,11,38,22.70
2012,08,12,11,39,22.80
2012,08,12,11,40,22.90
2012,08,12,11,41,23.00
2012,08,12,11,42,23.20
2012,08,12,11,43,23.30
2012,08,12,11,44,23.40
2012,08,12,11,45,23.40
2012,08,12,11,46,23.40
2012,08,12,11,47,23.40
2012,08,12,11,48,23.40
2012,08,12,11,49,23.40
2012,08,12,11,50,23.40
2012,08,12,11,51,23.40
2012,08,12,11,52,23.50
2012,08,12,11,53,23.50
2012,08,12,11,54,23.60
2012,08,12,11,55,23.50
2012,08,12,11,56,23.50
2012,08,12,11,57,23.50
2012,08,12,11,58,23.50
2012,08,12,11,59,23.50
2012,08,12,12,00,23.60
2012,08,12,12,01,23.60
2012,08,12,12,02,23.70
2012,08,12,12,03,23.80
2012,08,12,12,04,23.80
2012,08,12,12,05,23.90
2012,08,12,12,06,23.90
2012,08,12,12,07,23.90
2012,08,12,12,08,23.90
2012,08,12,12,09,24.00
2012,08,12,12,10,24.00
2012,08,12,12,11,24.10
2012,08,12,12,12,24.10
2012,08,12,12,13,24.10
2012,08,12,12,14,24.20
2012,08,12,12,15,24.20
2012,08,12,12,16,24.30
2012,08,12,12,17,24.40
2012,08,12,12,18,24.60
2012,08,12,12,19,24.70
2012,08,12,12,20,24.80
2012,08,12,12,21,24.90
2012,08,12,12,22,24.90
2012,08,12,12,23,25.00
2012,08,12,12,24,25.00
2012,08,12,12,25,25.10
2012,08,12,12,26,25.20
2012,08,12,12,27,25.30
2012,08,12,12,28,25.30
2012,08,12,12,29,25.40
2012,08,12,12,30,25.40
2012,08,12,12,31,25.30
2012,08,12,12,32,25.30
2012,08,12,12,33,25.20
2012,08,12,12,34,25.20
2012,08,12,12,35,25.20
2012,08,12,12,36,25.20
2012,08,12,12,37,25.20
2012,08,12,12,38,25.10
2012,08,12,12,39,25.20
2012,08,12,12,40,25.20
2012,08,12,12,41,25.30
2012,08,12,12,42,25.30
2012,08,12,12,43,25.40
2012,08,12,12,44,25.40
2012,08,12,12,45,25.40
2012,08,12,12,46,25.50
2012,08,12,12,47,25.50
2012,08,12,12,48,25.60
2012,08,12,12,49,25.70
2012,08,12,12,50,25.70
2012,08,12,12,51,25.80
2012,08,12,12,52,25.80
2012,08,12,12,53,25.80
2012,08,12,12,54,25.80
2012,08,12,12,55,25.80
2012,08,12,12,56,25.90
2012,08,12,12,57,25.90
2012,08,12,12,58,26.00
2012,08,12,12,59,26.00
2012,08,12,13,00,26.10
2012,08,12,13,01,26.20
2012,08,12,13,02,26.20
2012,08,12,13,03,26.30
2012,08,12,13,04,26.40
2012,08,12,13,05,26.50
2012,08,12,13,06,26.50
2012,08,12,13,07,26.50
2012,08,12,13,08,26.60
2012,08,12,13,09,26.60
2012,08,12,13,10,26.70
2012,08,12,13,11,26.70
2012,08,12,13,12,26.70
2012,08,12,13,13,26.80
2012,08,12,13,14,26.80
2012,08,12,13,15,26.80
2012,08,12,13,16,26.90
2012,08,12,13,17,27.00
2012,08,12,13,18,27.10
2012,08,12,13,19,27.10
2012,08,12,13,20,27.20
2012,08,12,13,21,27.20
2012,08,12,13,22,27.30
2012,08,12,13,23,27.40
2012,08,12,13,24,27.50
2012,08,12,13,25,27.60
2012,08,12,13,26,27.60
2012,08,12,13,27,27.70
2012,08,12,13,28,27.70
2012,08,12,13,29,27.80
2012,08,12,13,30,27.80
2012,08,12,13,31,27.80
2012,08,12,13,32,27.90
2012,08,12,13,33,27.90
2012,08,12,13,34,27.90
2012,08,12,13,35,27.90
2012,08,12,13,36,27.90
2012,08,12,13,37,27.90
2012,08,12,13,38,27.80
2012,08,12,13,39,27.80
2012,08,12,13,40,27.80
2012,08,12,13,41,27.90
2012,08,12,13,42,27.90
2012,08,12,13,43,28.00
2012,08,12,13,44,28.10
2012,08,12,13,45,28.20
2012,08,12,13,46,28.30
2012,08,12,13,47,28.30
2012,08,12,13,48,28.40
2012,08,12,13,49,28.40
2012,08,12,13,50,28.50
2012,08,12,13,51,28.60
2012,08,12,13,52,28.70
2012,08,12,13,53,28.80
2012,08,12,13,54,28.90
2012,08,12,13,55,28.80
2012,08,12,13,56,28.80
2012,08,12,13,57,28.90
2012,08,12,13,58,28.90
2012,08,12,13,59,29.00
2012,08,12,14,00,29.10
2012,08,12,14,01,29.20
2012,08,12,14,02,29.20
2012,08,12,14,03,29.30
2012,08,12,14,04,29.30
2012,08,12,14,05,29.30
2012,08,12,14,06,29.20
2012,08,12,14,07,29.20
2012,08,12,14,08,29.20
2012,08,12,14,09,29.20
2012,08,12,14,10,29.20
2012,08,12,14,11,29.20
2012,08,12,14,12,29.20
2012,08,12,14,13,29.20
2012,08,12,14,14,29.20
2012,08,12,14,15,29.20
2012,08,12,14,16,29.20
2012,08,12,14,17,29.30
2012,08,12,14,18,29.30
2012,08,12,14,19,29.30
2012,08,12,14,20,29.30
2012,08,12,14,21,29.30
2012,08,12,14,22,29.30
2012,08,12,14,23,29.30
2012,08,12,14,24,29.20
2012,08,12,14,25,29.30
2012,08,12,14,26,29.30
2012,08,12,14,27,29.40
2012,08,12,14,28,29.50
2012,08,12,14,29,29.50
2012,08,12,14,30,29.50
2012,08,12,14,31,29.50
2012,08,12,14,32,29.50
2012,08,12,14,33,29.40
2012,08,12,14,34,29.40
2012,08,12,14,35,29.50
2012,08,12,14,36,29.50
2012,08,12,14,37,29.60
2012,08,12,14,38,29.70
2012,08,12,14,39,29.80
2012,08,12,14,40,29.90
2012,08,12,14,41,29.90
2012,08,12,14,42,30.00
2012,08,12,14,43,30.20
2012,08,12,14,44,30.20
2012,08,12,14,45,30.30
2012,08,12,14,46,30.30
2012,08,12,14,47,30.40
2012,08,12,14,48,30.40
2012,08,12,14,49,30.50
2012,08,12,14,50,30.50
2012,08,12,14,51,30.60
2012,08,12,14,52,30.60
2012,08,12,14,53,30.60
2012,08,12,14,54,30.70
2012,08,12,14,55,30.70
2012,08,12,14,56,30.60
2012,08,12,14,57,30.60
2012,08,12,14,58,30.70
2012,08,12,14,59,30.70
2012,08,12,15,00,30.80
2012,08,12,15,01,30.80
2012,08,12,15,02,30.90
2012,08,12,15,03,30.90
2012,08,12,15,04,30.90
2012,08,12,15,05,30.90
2012,08,12,15,06,31.00
2012,08,12,15,07,31.10
2012,08,12,15,08,31.10
2012,08,12,15,09,31.10
2012,08,12,15,10,31.20
2012,08,12,15,11,31.10
2012,08,12,15,12,31.10
2012,08,12,15,13,31.10
2012,08,12,15,14,31.20
2012,08,12,15,15,31.20
2012,08,12,15,16,31.20
2012,08,12,15,17,31.30
2012,08,12,15,18,31.30
2012,08,12,15,19,31.40
2012,08,12,15,20,31.40
2012,08,12,15,21,31.40
2012,08,12,15,22,31.40
2012,08,12,15,23,31.50
2012,08,12,15,24,31.50
2012,08,12,15,25,31.50
2012,08,12,15,26,31.50
2012,08,12,15,27,31.40
2012,08,12,15,28,31.40
2012,08,12,15,29,31.50
2012,08,12,15,30,31.50
2012,08,12,15,31,31.60
2012,08,12,15,32,31.60
2012,08,12,15,33,31.60
2012,08,12,15,34,31.60
2012,08,12,15,35,31.60
2012,08,12,15,36,31.60
2012,08,12,15,37,31.70
2012,08,12,15,38,31.70
2012,08,12,15,39,31.80
2012,08,12,15,40,31.80
2012,08,12,15,41,31.80
2012,08,12,15,42,31.90
2012,08,12,15,43,31.90
2012,08,12,15,44,31.90
2012,08,12,15,45,31.90
2012,08,12,15,46,31.90
2012,08,12,15,47,31.90
2012,08,12,15,48,32.00
2012,08,12,15,49,32.10
2012,08,12,15,50,32.20
2012,08,12,15,51,32.20
2012,08,12,15,52,32.30
2012,08,12,15,53,32.40
2012,08,12,15,54,32.50
2012,08,12,15,55,32.60
2012,08,12,15,56,32.60
2012,08,12,15,57,32.60
2012,08,12,15,58,32.70
2012,08,12,15,59,32.70
2012,08,12,16,00,32.70
2012,08,12,16,01,32.80
2012,08,12,16,02,32.80
2012,08,12,16,03,32.70
2012,08,12,16,04,32.70
2012,08,12,16,05,32.60
2012,08,12,16,06,32.50
2012,08,12,16,07,32.50
2012,08,12,16,08,32.50
2012,08,12,16,09,32.50
2012,08,12,16,10,32.50
2012,08,12,16,11,32.50
2012,08,12,16,12,32.40
2012,08,12,16,13,32.40
2012,08,12,16,14,32.40
2012,08,12,16,15,32.50
2012,08,12,16,16,32.50
2012,08,12,16,17,32.50
2012,08,12,16,18,32.50
2012,08,12,16,19,32.40
2012,08,12,16,20,32.40
2012,08,12,16,21,32.30
2012,08,12,16,22,32.20
2012,08,12,16,23,32.20
2012,08,12,16,24,32.10
2012,08,12,16,25,32.10
2012,08,12,16,26,32.10
2012,08,12,16,27,32.10
2012,08,12,16,28,32.10
2012,08,12,16,29,32.20
2012,08,12,16,30,32.20
2012,08,12,16,31,32.30
2012,08,12,16,32,32.30
2012,08,12,16,33,32.20
2012,08,12,16,34,32.20
2012,08,12,16,35,32.10
2012,08,12,16,36,32.10
2012,08,12,16,37,32.10
2012,08,12,16,38,32.10
2012,08,12,16,39,32.20
2012,08,12,16,40,32.20
2012,08,12,16,41,32.20
2012,08,12,16,42,32.20
2012,08,12,16,43,32.30
2012,08,12,16,44,32.30
2012,08,12,16,45,32.30
2012,08,12,16,46,32.40
2012,08,12,16,47,32.40
2012,08,12,16,48,32.40
2012,08,12,16,49,32.40
2012,08,12,16,50,32.30
2012,08,12,16,51,32.30
2012,08,12,16,52,32.30
2012,08,12,16,53,32.30
2012,08,12,16,54,32.30
2012,08,12,16,55,32.30
2012,08,12,16,56,32.20
2012,08,12,16,57,32.20
2012,08,12,16,58,32.10
2012,08,12,16,59,32.10
2012,08,12,17,00,32.00
2012,08,12,17,01,31.90
2012,08,12,17,02,31.80
2012,08,12,17,03,31.80
2012,08,12,17,04,31.80
2012,08,12,17,05,31.80
2012,08,12,17,06,31.80
2012,08,12,17,07,31.80
2012,08,12,17,08,31.80
2012,08,12,17,09,31.80
2012,08,12,17,10,31.80
2012,08,12,17,11,31.80
2012,08,12,17,12,31.80
2012,08,12,17,13,31.80
2012,08,12,17,14,31.70
2012,08,12,17,15,31.70
2012,08,12,17,16,31.70
2012,08,12,17,17,31.70
2012,08,12,17,18,31.80
2012,08,12,17,19,31.80